Torna al catalogo

ESEO

AttivoRadioamatoreSSO
NORAD 43792·PAYLOAD·🇪🇺 EU

Lanciato Dec 3, 2018 da Vandenberg Space Force Base

Loading…

Prossimi Passaggi (prossime 24 ore)

TLE

AggiornatoSource: Space-Track

Epoca: Sep 14, 2026, 09:03 UTC

1 43792U 18099AL  26257.37731891  .00001649  00000-0  12187-3 0  9995
2 43792  97.3907 290.9273 0012663  34.8285 325.3768 15.04465863425212

Traccia ESEO in tempo reale con AllMySat

Download on the App Store